DECAYED

STARLINK-4449, 53666 (Decayed)

Orbit data source: Space-Track

STARLINK-4449, 53666 was a payload satellite owned by SpaceX/Seattle (US) in LEO that was launched on Wed, 31 Aug 2022 UTC via an FALCON 9 launch vehicle from the Air Force Western Test Range (AFWTR). Payload-class satellites include a variety of spacecraft equipped with specific instruments for various scientific and technological missions. These include communications satellites like Starlink; space stations such as the ISS; scientific satellites like the Hubble; Earth observation satellites from companies like Planet Labs, Umbra, and HawkEye 360; GPS; miniature CubeSats for education and research; and military/defense satellites.

Not visible in the next 10 days
Identifier
53666, 2022-105U
Orbit
Decayed
Country
Flag of USUS
Related business
Manufacturer
SpaceX/Seattle
Mission
Decayed Commercial Communications
Bus & Motor
STARLINK, Unknown motor
Mass
300 kg wet, ~290 kg dry
Launch date (UTC)
2022-08-31 (4 years ago)
Launch vehicle
FALCON 9
Launch site
Air Force Western Test Range (AFWTR)
Object type
Payload
Rocket body
Debris
Shape & HBR
Box + 1 Pan, 10.1 m
Radar Cross Section
13.562 m², Large (>1 m²)

Expand to show TLE details & history
Last TLE update: 1 year ago

TLE from 1 year ago
0 STARLINK-4449
1 53666U 22105U   25119.45586497  .03847239  26241-5  12762-2 0  9998
2 53666  97.6348   7.3349 0005683 239.1167 120.9566 16.25857663146641
Epoch: 2025-04-29T10:56Z
TLE epoch observation values (Epoch: 2025-04-29T10:56:26.733Z)
Latitude
0.00001°
Longitude
-14.43177°
Altitude
208.847 km
Speed
7.78 km/s
True Right ascension
00h 29m 20s
True Declination
0° 00' 00"
Sunlit
Object was in daylight at epoch
Visualization orbit readout
Latitude
Unknown
Longitude
Unknown
Altitude
Unknown
Speed
Unknown
Apparent Right ascension
Unknown
Apparent Declination
Unknown
Sunlit
N/A
Visualization observer readout
Local Sidereal Time
21:29:03
Azimuth
Unknown
Elevation
Unknown
Doppler factor
Unknown
Orbital elements
Apogee altitude
204.271 km
Perigee altitude
196.794 km
Semi-major axis
6,578.669 km
Eccentricity
0.00057
Inclination
97.6348°
RAAN
7.3349°
Arg. of periapsis
239.1167°
True anomaly
121.01243°
Mean anomaly
120.9566°
Eccentric anomaly
120.98451°
Mean motion
4.06758 °/min
Orbital period
88.5 mins
BSTAR
0.0012762
Loading maneuver chart data...
Computing Atmospheric mass density...
Loading historical data...
Loading historical data...
Loading historical data...
Loading historical data...
Loading historical data...
Loading historical data...
Loading historical data...

Documentation

Showing up to 5 results
|